W2PJ Weather Reports


Display with metric or nautical units.
time (UTC)temp
F
wind
direction
speed
MPH
gust
MPH
rain 1hr
in
rain 24hr
in
rain mn
in
humidity
%
barometer
mb
20260505125003 67 124 7.0 22.0 0.00 0.01 0.01 61 1003.4
20260505124602 67 210 6.0 18.0 0.00 0.01 0.01 61 1003.5
20260505124058 66 147 6.0 17.0 0.00 0.01 0.01 62 1003.5
20260505123558 66 167 6.0 16.0 0.00 0.01 0.01 63 1003.5
20260505123102 65 169 4.0 16.0 0.00 0.01 0.01 64 1003.6
20260505122554 65 252 8.0 18.0 0.00 0.01 0.01 64 1003.5
20260505122053 65 268 4.0 18.0 0.00 0.01 0.01 64 1003.5
20260505121621 65 165 5.0 19.0 0.00 0.01 0.01 65 1003.4
20260505121052 65 210 4.0 19.0 0.00 0.01 0.01 65 1003.3
20260505120550 65 200 9.0 28.0 0.00 0.01 0.01 65 1003.3
20260505120050 64 233 12.0 28.0 0.00 0.01 0.01 65 1003.4
20260505115549 64 200 4.0 18.0 0.00 0.01 0.01 66 1003.4
20260505115047 63 218 4.0 17.0 0.00 0.01 0.01 67 1003.5
20260505114547 62 235 2.0 17.0 0.00 0.01 0.01 69 1003.6
20260505114047 62 178 4.0 20.0 0.00 0.01 0.01 70 1003.5
20260505113548 61 204 5.0 13.0 0.00 0.01 0.01 71 1003.3
20260505113049 61 150 3.0 17.0 0.00 0.01 0.01 72 1003.4
20260505112546 61 154 3.0 17.0 0.00 0.01 0.01 73 1003.3
20260505112045 61 245 2.0 12.0 0.00 0.01 0.01 72 1003.2
20260505111549 61 181 3.0 15.0 0.00 0.01 0.01 71 1003.0
20260505111048 61 193 1.0 20.0 0.00 0.01 0.01 71 1003.1
20260505110544 61 166 3.0 17.0 0.00 0.01 0.01 71 1003.0
20260505102042 56 197 0.0 4.0 0.00 0.01 0.01 78 1002.9
20260505101544 56 185 0.0 3.0 0.00 0.01 0.01 78 1003.0
20260505101041 56 186 0.0 12.0 0.00 0.01 0.01 78 1003.0
20260505100541 56 190 0.0 11.0 0.00 0.01 0.01 78 1002.9
20260505100054 56 103 0.0 11.0 0.00 0.01 0.01 78 1002.9
20260505095544 56 124 0.0 13.0 0.00 0.01 0.01 78 1002.9
20260505095046 56 196 0.0 13.0 0.01 0.01 0.01 77 1002.9
20260505094543 56 157 0.0 5.0 0.01 0.01 0.01 77 1003.0
20260505094040 56 174 0.0 6.0 0.01 0.01 0.01 77 1002.9
20260505093541 56 210 0.0 8.0 0.01 0.01 0.01 77 1002.9
20260505093040 56 158 0.0 8.0 0.01 0.01 0.01 78 1002.9
20260505092545 56 145 0.0 12.0 0.01 0.01 0.01 79 1002.9
20260505092039 56 172 0.0 12.0 0.01 0.01 0.01 80 1003.0
20260505091550 56 136 0.0 8.0 0.01 0.01 0.01 81 1003.0
20260505091037 56 199 0.0 4.0 0.01 0.01 0.01 82 1003.0
20260505090537 56 176 0.0 4.0 0.01 0.01 0.01 82 1003.0
20260505090051 56 185 0.0 8.0 0.01 0.01 0.01 82 1003.0
20260505085536 56 142 0.0 8.0 0.01 0.01 0.01 82 1003.0
20260505085036 56 133 0.0 2.0 0.00 0.00 0.00 83 1003.1
20260505084535 57 178 0.0 0.0 0.00 0.00 0.00 83 1003.3
20260505084037 57 164 0.0 0.0 0.00 0.00 0.00 82 1003.3
20260505083532 57 131 0.0 1.0 0.00 0.00 0.00 80 1003.5
20260505083044 58 167 0.0 13.0 0.00 0.00 0.00 77 1003.6
20260505082534 58 169 0.0 13.0 0.00 0.00 0.00 74 1003.9
20260505082030 58 152 0.0 7.0 0.00 0.00 0.00 72 1003.8
20260505081532 58 195 0.0 7.0 0.00 0.00 0.00 72 1003.8
20260505081029 58 172 0.0 3.0 0.00 0.00 0.00 72 1003.6
20260505080533 57 193 0.0 2.0 0.00 0.00 0.00 73 1003.6
20260505080042 57 193 0.0 3.0 0.00 0.00 0.00 74 1003.5
20260505075531 57 178 0.0 7.0 0.00 0.00 0.00 75 1003.5
20260505075034 57 164 0.0 8.0 0.00 0.00 0.00 76 1003.5
20260505074527 58 168 1.0 8.0 0.00 0.00 0.00 78 1003.4
20260505074030 58 131 0.0 11.0 0.00 0.00 0.00 77 1003.4
20260505073526 58 86 1.0 11.0 0.00 0.00 0.00 77 1003.5
20260505073027 58 151 0.0 10.0 0.00 0.00 0.00 77 1003.5
20260505072524 59 156 1.0 13.0 0.00 0.00 0.00 76 1003.6
20260505072022 59 127 1.0 13.0 0.00 0.00 0.00 74 1003.5
20260505071533 60 242 0.0 3.0 0.00 0.00 0.00 73 1003.5
20260505071022 60 161 0.0 9.0 0.00 0.00 0.00 72 1003.4
20260505070520 60 183 1.0 9.0 0.00 0.00 0.00 71 1003.4
20260505070020 60 232 0.0 13.0 0.00 0.00 0.00 71 1003.5
20260505065519 60 176 2.0 13.0 0.00 0.00 0.00 71 1003.5
20260505065019 61 253 2.0 19.0 0.00 0.00 0.00 69 1003.4
20260505064516 61 176 4.0 23.0 0.00 0.00 0.00 67 1003.4
20260505064015 62 202 4.0 23.0 0.00 0.00 0.00 63 1003.1
20260505063514 62 175 4.0 14.0 0.00 0.00 0.00 61 1003.3
20260505063017 62 148 4.0 16.0 0.00 0.00 0.00 60 1003.6
20260505062513 62 248 2.0 16.0 0.00 0.00 0.00 60 1003.6
20260505062013 63 231 4.0 14.0 0.00 0.00 0.00 60 1003.6
20260505061512 63 227 5.0 19.0 0.00 0.00 0.00 60 1003.6
20260505061014 63 152 4.0 19.0 0.00 0.00 0.00 59 1003.4
20260505060509 63 188 2.0 20.0 0.00 0.00 0.00 58 1003.5
20260505060008 62 178 8.0 19.0 0.00 0.00 0.00 58 1003.5
20260505055507 62 180 2.0 15.0 0.00 0.00 0.00 58 1003.5
20260505055007 62 188 0.0 11.0 0.00 0.00 0.00 58 1003.6
20260505054506 62 181 1.0 10.0 0.00 0.00 0.00 58 1003.5
20260505054007 62 154 2.0 10.0 0.00 0.00 0.00 58 1003.6
20260505053505 62 155 1.0 9.0 0.00 0.00 0.00 57 1003.5
20260505053006 62 258 3.0 9.0 0.00 0.00 0.00 57 1003.5
20260505052504 62 172 1.0 12.0 0.00 0.00 0.00 57 1003.5
20260505052004 62 148 4.0 12.0 0.00 0.00 0.00 57 1003.4
20260505051503 62 156 2.0 13.0 0.00 0.00 0.00 57 1003.4
20260505051003 62 148 3.0 16.0 0.00 0.00 0.00 57 1003.5
20260505050500 62 167 6.0 16.0 0.00 0.00 0.00 56 1003.5
20260505041605 61 209 0.0 10.0 0.00 0.00 0.00 56 1003.6
20260505041053 61 203 2.0 10.0 0.00 0.00 0.00 55 1003.5
20260505040553 61 203 0.0 13.0 0.00 0.00 0.00 55 1003.5
20260505040051 62 162 3.0 16.0 0.00 0.00 0.00 55 1003.4
20260505035550 61 159 4.0 16.0 0.00 0.00 0.00 55 1003.4
20260505035052 62 126 2.0 15.0 0.00 0.00 0.00 55 1003.3
20260505034551 62 194 3.0 15.0 0.00 0.00 0.00 54 1003.3
20260505034051 62 168 2.0 13.0 0.00 0.00 0.00 54 1003.4
20260505033551 62 174 2.0 13.0 0.00 0.00 0.00 54 1003.4
20260505033051 61 223 2.0 10.0 0.00 0.00 0.00 54 1003.4
20260505032549 62 231 1.0 11.0 0.00 0.00 0.00 54 1003.5
20260505032052 62 193 2.0 11.0 0.00 0.00 0.00 54 1003.4
20260505031550 62 168 2.0 10.0 0.00 0.00 0.00 54 1003.5
20260505031048 62 121 1.0 12.0 0.00 0.00 0.00 54 1003.5
20260505030549 62 175 1.0 12.0 0.00 0.00 0.00 53 1003.5
20260505030058 62 248 0.0 10.0 0.00 0.00 0.00 53 1003.6
20260505025549 62 129 3.0 12.0 0.00 0.00 0.00 53 1003.5
20260505025049 62 148 1.0 13.0 0.00 0.00 0.00 53 1003.5
20260505024548 62 132 2.0 13.0 0.00 0.00 0.00 53 1003.6
20260505024047 62 117 1.0 10.0 0.00 0.00 0.00 53 1003.6
20260505023547 62 159 2.0 10.0 0.00 0.00 0.00 53 1003.6
20260505023048 62 159 0.0 13.0 0.00 0.00 0.00 53 1003.6
20260505022548 62 190 2.0 13.0 0.00 0.00 0.00 52 1003.7
20260505022047 62 226 0.0 10.0 0.00 0.00 0.00 52 1003.7
20260505021554 62 242 0.0 10.0 0.00 0.00 0.00 52 1003.7
20260505021046 62 83 0.0 13.0 0.00 0.00 0.00 52 1003.6
20260505020546 62 154 1.0 8.0 0.00 0.00 0.00 52 1003.7
20260505020055 62 151 0.0 4.0 0.00 0.00 0.00 52 1003.6
20260505015546 62 138 0.0 7.0 0.00 0.00 0.00 52 1003.6
20260505015049 62 133 0.0 7.0 0.00 0.00 0.00 51 1003.7
20260505014546 62 143 0.0 5.0 0.00 0.00 0.00 51 1003.7
20260505014045 62 157 0.0 10.0 0.00 0.00 0.00 50 1003.7
20260505013551 62 164 0.0 10.0 0.00 0.00 0.00 49 1003.7
20260505013047 62 103 0.0 4.0 0.00 0.00 0.00 49 1003.7
20260505012545 62 122 0.0 8.0 0.00 0.00 0.00 48 1003.7
20260505012046 63 179 0.0 8.0 0.00 0.00 0.00 47 1003.8
20260505011545 63 158 0.0 2.0 0.00 0.00 0.00 47 1003.7
20260505011044 63 99 0.0 1.0 0.00 0.00 0.00 46 1003.8
20260505010546 63 114 0.0 1.0 0.00 0.00 0.00 46 1003.8
20260505010104 63 88 0.0 1.0 0.00 0.00 0.00 45 1003.7
20260505005545 64 127 0.0 0.0 0.00 0.00 0.00 45 1003.7
20260505005045 64 101 0.0 1.0 0.00 0.00 0.00 44 1003.7
20260505004545 64 127 0.0 0.0 0.00 0.00 0.00 44 1003.7
20260505004044 64 135 0.0 1.0 0.00 0.00 0.00 44 1003.7
20260505003543 64 151 0.0 1.0 0.00 0.00 0.00 43 1003.7
20260505003049 64 139 0.0 0.0 0.00 0.00 0.00 42 1003.6
20260505002546 65 140 0.0 0.0 0.00 0.00 0.00 42 1003.5
20260505002046 65 129 0.0 0.0 0.00 0.00 0.00 42 1003.5
20260505001543 66 157 0.0 0.0 0.00 0.00 0.00 41 1003.5
20260505001042 66 140 0.0 0.0 0.00 0.00 0.00 40 1003.4
20260505000542 67 161 0.0 0.0 0.00 0.00 0.00 39 1003.6
20260505000051 68 158 0.0 0.0 0.00 0.00 0.00 39 1003.5
20260504235545 68 159 0.0 1.0 0.00 0.00 0.00 38 1003.4
20260504235042 69 186 0.0 3.0 0.00 0.00 0.00 37 1003.5
20260504234543 69 192 0.0 3.0 0.00 0.00 0.00 37 1003.4
20260504234042 70 197 0.0 0.0 0.00 0.00 0.00 36 1003.3
20260504233546 70 172 0.0 0.0 0.00 0.00 0.00 36 1003.3
20260504233050 71 255 0.0 0.0 0.00 0.00 0.00 36 1003.3
20260504232544 71 265 0.0 1.0 0.00 0.00 0.00 35 1003.2
20260504232042 71 228 0.0 6.0 0.00 0.00 0.00 35 1003.2
20260504231539 71 186 0.0 7.0 0.00 0.00 0.00 35 1003.2
20260504231040 71 245 0.0 9.0 0.00 0.00 0.00 35 1003.3
20260504230542 71 259 3.0 9.0 0.00 0.00 0.00 35 1003.3
20260504230055 71 196 0.0 5.0 0.00 0.00 0.00 36 1003.3
20260504225543 70 240 0.0 3.0 0.00 0.00 0.00 36 1003.3
20260504225041 70 238 0.0 8.0 0.00 0.00 0.00 36 1003.3
20260504224556 70 252 1.0 8.0 0.00 0.00 0.00 36 1003.4
20260504224038 71 250 2.0 8.0 0.00 0.00 0.00 36 1003.4
20260504223539 71 265 1.0 10.0 0.00 0.00 0.00 36 1003.5
20260504223037 71 221 1.0 8.0 0.00 0.00 0.00 37 1003.5
20260504222538 71 242 3.0 14.0 0.00 0.00 0.00 36 1003.5
20260504222036 70 217 2.0 14.0 0.00 0.00 0.00 36 1003.5
20260504221538 71 230 4.0 12.0 0.00 0.00 0.00 36 1003.5
20260504221036 70 219 2.0 14.0 0.00 0.00 0.00 37 1003.5
20260504220536 70 259 6.0 14.0 0.00 0.00 0.00 36 1003.5
20260504220038 70 262 5.0 14.0 0.00 0.00 0.00 36 1003.5
20260504215535 70 197 4.0 15.0 0.00 0.00 0.00 37 1003.6
20260504215035 70 268 7.0 15.0 0.00 0.00 0.00 36 1003.6
20260504214542 70 274 6.0 14.0 0.00 0.00 0.00 36 1003.6
20260504214036 71 240 5.0 17.0 0.00 0.00 0.00 36 1003.6
20260504213535 71 237 8.0 13.0 0.00 0.00 0.00 37 1003.6
20260504213034 71 189 0.0 15.0 0.00 0.00 0.00 39 1003.6
20260504212532 70 258 6.0 15.0 0.00 0.00 0.00 39 1003.6
20260504212029 70 230 4.0 10.0 0.00 0.00 0.00 40 1003.7
20260504211530 70 160 3.0 13.0 0.00 0.00 0.00 39 1003.7
20260504211028 70 264 3.0 14.0 0.00 0.00 0.00 39 1003.6
20260504210530 70 228 3.0 14.0 0.00 0.00 0.00 39 1003.7
20260504210026 70 158 3.0 9.0 0.00 0.00 0.00 40 1003.8
20260504205525 70 186 0.0 11.0 0.00 0.00 0.00 41 1003.8
20260504205029 70 248 2.0 11.0 0.00 0.00 0.00 41 1003.8
20260504204523 70 208 2.0 14.0 0.00 0.00 0.00 41 1003.9
20260504204021 69 233 7.0 14.0 0.00 0.00 0.00 40 1004.0
20260504203520 70 228 7.0 19.0 0.00 0.00 0.00 40 1004.1
20260504203020 69 268 7.0 19.0 0.00 0.00 0.00 40 1004.2
20260504202519 69 257 4.0 15.0 0.00 0.00 0.00 42 1004.2
20260504202015 68 242 5.0 18.0 0.00 0.00 0.00 42 1004.3
20260504201515 68 255 9.0 18.0 0.00 0.00 0.00 42 1004.4
20260504201014 69 251 3.0 16.0 0.00 0.00 0.00 43 1004.4
20260504200513 69 237 4.0 16.0 0.00 0.00 0.00 43 1004.4
20260504200017 69 312 5.0 15.0 0.00 0.00 0.00 43 1004.5
20260504195511 69 292 7.0 15.0 0.00 0.00 0.00 42 1004.5
20260504195010 69 251 4.0 15.0 0.00 0.00 0.00 43 1004.7
20260504194511 68 231 5.0 18.0 0.00 0.00 0.00 42 1004.8
20260504194009 68 274 9.0 18.0 0.00 0.00 0.00 43 1005.0
20260504193511 68 272 2.0 27.0 0.00 0.00 0.00 45 1005.1
20260504193007 68 235 8.0 27.0 0.00 0.00 0.00 44 1005.1
20260504192505 67 242 4.0 16.0 0.00 0.00 0.00 45 1005.1
20260504192007 67 258 5.0 19.0 0.00 0.00 0.00 45 1005.1
20260504191503 67 259 11.0 19.0 0.00 0.00 0.00 45 1005.3
20260504191002 67 278 6.0 19.0 0.00 0.00 0.00 45 1005.2
20260504190503 67 252 11.0 24.0 0.00 0.00 0.00 44 1005.3
20260504190101 67 245 12.0 24.0 0.00 0.00 0.00 45 1005.4
20260504185559 67 254 11.0 18.0 0.00 0.00 0.00 47 1005.5
20260504185501 67 278 11.0 17.0 0.00 0.00 0.00 46 1005.4
20260504185059 67 266 9.0 17.0 0.00 0.00 0.00 46 1005.5
20260504184600 67 245 6.0 15.0 0.00 0.00 0.00 48 1005.5
20260504184057 67 261 4.0 19.0 0.00 0.00 0.00 47 1005.6
20260504183556 67 269 7.0 21.0 0.00 0.00 0.00 48 1005.7
20260504183055 67 241 3.0 19.0 0.00 0.00 0.00 48 1005.6
20260504182556 66 287 10.0 19.0 0.00 0.00 0.00 46 1005.7
20260504182052 67 259 9.0 23.0 0.00 0.00 0.00 47 1005.6
20260504181553 66 278 10.0 23.0 0.00 0.00 0.00 47 1005.7
20260504181051 66 244 10.0 21.0 0.00 0.00 0.00 48 1005.8
20260504180549 66 244 10.0 25.0 0.00 0.00 0.00 48 1005.6
20260504180149 66 238 15.0 25.0 0.00 0.00 0.00 47 1005.9
20260504175548 65 302 8.0 19.0 0.00 0.00 0.00 49 1005.8
20260504175048 65 280 10.0 21.0 0.00 0.00 0.00 48 1005.9
20260504174553 65 241 10.0 20.0 0.00 0.00 0.00 49 1005.9
20260504174047 65 240 11.0 20.0 0.00 0.00 0.00 49 1006.0
20260504173547 66 268 9.0 17.0 0.00 0.00 0.00 48 1005.8
20260504173045 66 237 8.0 18.0 0.00 0.00 0.00 49 1005.9
20260504172548 65 278 10.0 21.0 0.00 0.00 0.00 49 1005.9
20260504172043 65 261 10.0 21.0 0.00 0.00 0.00 49 1005.9
20260504171541 65 235 10.0 15.0 0.00 0.00 0.00 50 1006.0
20260504171040 64 261 5.0 16.0 0.00 0.00 0.00 50 1006.0
20260504170539 64 266 4.0 13.0 0.00 0.00 0.00 50 1005.9
20260504151021 60 259 2.0 17.0 0.00 0.00 0.00 54 1007.3
20260504150517 59 286 6.0 16.0 0.00 0.00 0.00 53 1007.3
20260504141013 55 207 3.0 12.0 0.00 0.00 0.00 56 1007.7
20260504140507 55 175 2.0 10.0 0.00 0.00 0.00 55 1007.6